Location: Bernadets
(43.3537°N, 0.3167°E)
Time: 02:56:50
(UTC+00:00)

Okean 1-7 Rocket - Pass Details

Date: 24 October 2021
Orbit: 617 x 648 km, 82.5° (Epoch: 29 November)

Event Time Altitude Azimuth Distance (km) Brightness Sun altitude
Rises 17:52:24 0° 354° (N) 2,908 7.0 -9.9°
Reaches altitude 10° 17:54:39 10° 357° (N) 2,001 6.1 -10.3°
Maximum altitude 17:59:04 68° 80° (E) 678 3.5 -11.1°
Drops below altitude 10° 18:03:29 10° 164° (SSE) 2,003 6.1 -11.9°
Sets 18:05:44 0° 167° (SSE) 2,911 6.9 -12.3°
